Location: Unspecified
(40.7945°N, 0.0000°E)
Time: 07:51:09
(UTC+00:00)

Tiros 1 despin weight - Pass Details

Date: 28 January 2021
Orbit: 593 x 642 km, 48.2° (Epoch: 05 March)

Event Time Altitude Azimuth Distance (km) Brightness Sun altitude
Rises 19:41:59 0° 288° (WNW) 2,847 ? -28.3°
Reaches altitude 10° 19:44:49 10° 271° (W) 1,933 ? -28.8°
Maximum altitude 19:47:56 19° 226° (SW) 1,427 ? -29.4°
Enters shadow 19:48:54 18° 209° (SSW) 1,480 ? -29.6°
